Location: Home
(42.5358°N, 72.7383°W)
Time: 10:54:44
(UTC-05:00)

S-56A Canister/Altair - Pass Details

Date: 07 December 2021
Orbit: 634 x 2499 km, 38.9° (Epoch: 22 January)

Event Time Altitude Azimuth Distance (km) Brightness Sun altitude
Rises 19:42:59 0° 196° (SSW) 6,088 12.3 -37.0°
Reaches altitude 10° 19:48:37 10° 183° (S) 4,912 11.6 -38.0°
Enters shadow 19:53:05 17° 166° (SSE) 4,135 11.0 -38.8°
Maximum altitude 19:57:24 21° 142° (SE) 3,679 - -39.6°
Drops below altitude 10° 20:04:39 10° 100° (E) 3,980 - -41.0°
Sets 20:08:30 0° 85° (E) 4,657 - -41.7°
